This is the latest recevied weather packets stored in our database for station/object DJ5NF-10. If no packets are shown the sender has not sent any weather packets the latest 10 day(s).
| Time | Temp. | Humidity | Pressure | Rain* | Wind** | Luminosity | Snow |
|---|---|---|---|---|---|---|---|
| 1777308984 | 21.67° C | 30% | 1016.4 hPa | - | - | - | - |
| 1777306284 | 21.67° C | 30% | 1016.6 hPa | - | - | - | - |
| 1777303584 | 21.67° C | 30% | 1016.8 hPa | - | - | - | - |
| 1777300884 | 21.67° C | 30% | 1017.3 hPa | - | - | - | - |
| 1777298184 | 21.11° C | 30% | 1017.9 hPa | - | - | - | - |
| 1777295484 | 21.11° C | 30% | 1018.3 hPa | - | - | - | - |
| 1777292784 | 20.56° C | 30% | 1018.5 hPa | - | - | - | - |
| 1777290084 | 20.56° C | 30% | 1018.8 hPa | - | - | - | - |
| 1777287383 | 20° C | 30% | 1019.2 hPa | - | - | - | - |
| 1777284683 | 19.44° C | 30% | 1019.4 hPa | - | - | - | - |
| 1777281984 | 18.89° C | 30% | 1019.8 hPa | - | - | - | - |
| 1777279284 | 18.33° C | 31% | 1020.1 hPa | - | - | - | - |
| 1777276584 | 18.33° C | 30% | 1020.2 hPa | - | - | - | - |
| 1777273884 | 17.78° C | 31% | 1020.2 hPa | - | - | - | - |
| 1777271184 | 17.78° C | 31% | 1020.5 hPa | - | - | - | - |
| 1777268484 | 17.78° C | 31% | 1020.3 hPa | - | - | - | - |
| 1777265784 | 17.78° C | 31% | 1020 hPa | - | - | - | - |
| 1777263084 | 17.78° C | 31% | 1019.9 hPa | - | - | - | - |
| 1777260384 | 18.33° C | 31% | 1020 hPa | - | - | - | - |
| 1777257684 | 18.33° C | 31% | 1019.9 hPa | - | - | - | - |
| 1777254984 | 18.89° C | 31% | 1019.9 hPa | - | - | - | - |
| 1777252284 | 18.89° C | 31% | 1020 hPa | - | - | - | - |
| 1777249584 | 19.44° C | 31% | 1020 hPa | - | - | - | - |
| 1777246884 | 19.44° C | 31% | 1020 hPa | - | - | - | - |
| 1777244184 | 20° C | 31% | 1020.2 hPa | - | - | - | - |
* Rain since midnight (hover to see other rain measurements)
** Current wind speed in m/s (hover to see current wind gust speed)